Location: ???????
(55.3754°N, 39.3545°E)
Time: 11:46:27
(UTC+00:00)

USA 267 - Pass Details

Date: 14 April 2026
Orbit: 1101 x 1107 km, 123.0° (Epoch: 10 January)

Event Time Altitude Azimuth Distance (km) Brightness Sun altitude
Rises 23:24:21 0° 63° (ENE) 3,936 7.2 -20.2°
Reaches altitude 10° 23:26:55 10° 68° (ENE) 2,975 6.3 -20.0°
Maximum altitude 23:33:20 54° 145° (SE) 1,327 3.5 -19.5°
Enters shadow 23:36:26 31° 207° (SSW) 1,847 3.9 -19.2°
